Location: Arboyeti
(42.1122°N, 44.6017°E)
Time: 19:33:39
(UTC+00:00)

RESURS DK-1 - Pass Details

Date: 19 April 2021
Orbit: 553 x 563 km, 69.9° (Epoch: 18 May)

Event Time Altitude Azimuth Distance (km) Brightness Sun altitude
Rises 16:59:51 0° 208° (SSW) 2,720 5.9 -13.2°
Reaches altitude 10° 17:02:02 10° 210° (SSW) 1,832 5.0 -13.6°
Maximum altitude 17:06:07 76° 296° (WNW) 578 2.5 -14.2°
Drops below altitude 10° 17:10:16 10° 23° (NNE) 1,851 5.1 -14.9°
Sets 17:12:29 0° 25° (NNE) 2,753 6.0 -15.2°
